Location: Seasalter
(51.3333°N, 1.0167°E)
Time: 06:52:12
(UTC+00:00)

ATLAS 5 CENTAUR R/B - Pass Details

Date: 23 April 2024
Orbit: 421 x 1169 km, 63.3° (Epoch: 18 May)

Event Time Altitude Azimuth Distance (km) Brightness Sun altitude
Rises 20:06:24 0° 264° (W) 2,434 5.5 -9.1°
Reaches altitude 10° 20:08:39 10° 279° (W) 1,622 4.9 -9.4°
Maximum altitude 20:11:38 24° 336° (NNW) 1,073 3.6 -9.8°
Drops below altitude 10° 20:15:03 10° 33° (NNE) 1,867 4.1 -10.2°
Sets 20:17:50 0° 46° (NE) 2,905 4.9 -10.5°
